Regional Weather Roundup
Issued by NWS

Home | Current Version | Previous Version | Graphics & Text | Print | Product List | Glossary On
Versions: 1 2 3 4 5 6 7 8 9 10 11 12 13 14 15 16 17 18 19 20 21 22 23 24 25 26 27 28 29 30 31 32 33 34 35 36 37 38 39 40 41 42 43 44 45 46 47 48 49 50
000
ASUS45 KABQ 250901
RWRNM
WEATHER ROUNDUP FOR NEW MEXICO
NATIONAL WEATHER SERVICE ALBUQUERQUE NM
300 AM MDT SAT APR 25 2015

NOTE: "FAIR" MEANS FEW OR NO CLOUDS BELOW 12,000 FEET AGL WITH NO
       SIGNIFICANT WEATHER OR OBSTRUCTIONS TO VISION.

      THIS PRODUCT IS RELEASED AS TWO VERSIONS.  ONE VERSION NEAR
      THE TOP OF THE HOUR CONTAINING PRELIMINARY DATA FROM ALBUQUERQUE
      AND OTHER STATIONS.  A FINAL VERSION WITH ADDITIONAL DATA IS
      ISSUED ABOUT 10 MINUTES AFTER THE HOUR.

NMZ501-503-504-510>518-251000-
NORTHWEST PLATEAU/NORTHCENTRAL MOUNTAINS

CITY           SKY/WX    TMP DP  RH WIND       PRES   REMARKS
FARMINGTON     PTCLDY    42  37  82 E7        29.91F
LOS ALAMOS     PTCLDY    44  32  62 NW12      29.97F
SANTA FE       CLEAR     39  29  67 NW6       29.94F WCI  35
TAOS           MOCLDY    37  27  65 CALM      29.97F
ANGEL FIRE     CLOUDY    35  31  85 W13G18    29.97S WCI  26

$$
NMZ402-403-502-505>509-251000-
WESTCENTRAL MOUNTAINS/SOUTHWEST MOUNTAINS

CITY           SKY/WX    TMP DP  RH WIND       PRES   REMARKS
GALLUP         PTCLDY    40  33  76 SW9       30.00S WCI  34
GRANTS         CLOUDY    44  33  65 W9        30.03F
SILVER CITY      N/A     39  30  70 NW9       30.02S WCI  33

$$
NMZ407-409-411-412-251000-
SOUTHERN DESERTS

CITY           SKY/WX    TMP DP  RH WIND       PRES   REMARKS
LORDSBURG      FAIR      43  27  52 CALM      29.98S
DEMING         CLEAR     46  31  55 W8        29.97F
LAS CRUCES     CLEAR     47  30  52 W8        29.98F
ALAMOGORDO     CLEAR     50  28  43 S7        29.95S
T OR C         CLEAR     50  31  48 NW8       29.95F

$$
NMZ519>523-251000-
CENTRAL VALLEYS/CENTRAL HIGHLANDS

CITY           SKY/WX    TMP DP  RH WIND       PRES   REMARKS
ALBUQUERQUE    PTCLDY    50  32  50 W9        29.96S
DOUBLE EAGLE   CLEAR     43  32  64 SW13      29.96S
MORIARTY ARPT  FAIR      44  31  60 W15       29.96R
CLINES CORNERS CLEAR     39  31  72 W22       29.92S WCI  29
BELEN          FAIR      46  33  61 W7        29.96F
SOCORRO        FAIR      51  31  45 N7        29.95S

$$
NMZ524>526-539-540-251000-
SOUTHCENTRAL MOUNTAINS

CITY           SKY/WX    TMP DP  RH WIND       PRES   REMARKS
RUIDOSO        NOT AVBL

$$
NMZ527>531-251000-
NORTHEAST HIGHLANDS/NORTHEAST PLAINS

CITY           SKY/WX    TMP DP  RH WIND       PRES   REMARKS
LAS VEGAS      CLEAR     39  27  62 SE12      29.88S WCI  32
RATON          CLEAR     30  23  75 NE7       29.82S WCI  23
CLAYTON        CLEAR     48  24  39 W13       29.76R

$$
NMZ532>537-251000-
EASTCENTRAL PLAINS

CITY           SKY/WX    TMP DP  RH WIND       PRES   REMARKS
TUCUMCARI      CLEAR     55  30  38 W20       29.77S
CANNON AFB     NOT AVBL
CLOVIS AIRPORT CLEAR     50  28  43 W12       29.83S

$$
NMZ028-029-538-251000-
SOUTHEAST PLAINS

CITY           SKY/WX    TMP DP  RH WIND       PRES   REMARKS
ROSWELL        CLEAR     55  30  38 W10       29.87S
ARTESIA        CLEAR     57  28  33 W13       29.89S
CARLSBAD       CLEAR     59  29  31 S12G21    29.86F
HOBBS          CLEAR     54  28  37 W12       29.88S


$$



USA.gov is the U.S. government's official web portal to all federal, state and local government web resources and services.